Change the Weather History Date:

Saturday, January 3, 2015

  Actual Average Record
Temperature  
Mean Temperature 13 °F -  
Max Temperature 18 °F 14 °F 41 °F (1995)
Min Temperature 7 °F -2 °F -37 °F (2012)
Degree Days  
Heating Degree Days 52 59  
Month to date heating degree days 134 177  
Since 1 July heating degree days 5201 5995  
Cooling Degree Days 0    
Month to date cooling degree days 0  
Year to date cooling degree days 0  
Moisture  
Dew Point 5 °F    
Average Humidity 0    
Maximum Humidity 0    
Minimum Humidity 0    
Precipitation  
Precipitation 0.00 in 0.04 in 0.34 in (1947)
Month to date precipitation 0.17 0.10  
Year to date precipitation 0.17 0.10  
Snow  
Snow 0.00 in 0.40 in 3.40 in (1947)
Month to date snowfall 1.8 1.3  
Since 1 July snowfall 24.5 33.1  
Snow Depth 12.00 in    
Sea Level Pressure  
Sea Level Pressure 30.47 in    
Wind  
Wind Speed 12 mph (ENE)    
Max Wind Speed 17 mph    
Max Gust Speed 22 mph    
Visibility 10 miles    
Events      
T = Trace of Precipitation, MM = Missing Value Source: NWS Daily Summary

Daily Weather History Graph

Daily Weather History Graph

Search for Another Location

Airport or City:

Trip Planner

Search our weather history database for the weather conditions in past years. The results will help you decide how hot, cold, wet, or windy it might be!

Date:

Astronomy

Jan. 03, 2015 Rise Set
Actual Time 11:56 AM AKST 4:16 PM AKST
Civil Twilight 10:38 AM AKST 5:34 PM AKST
Nautical Twilight 9:30 AM AKST 6:43 PM AKST
Astronomical Twilight 8:29 AM AKST 7:43 PM AKST
Moon 4:10 PM AKST (1/3) 9:54 AM AKST (1/3)
Length of Visible Light 6h 55m
Length of Day
4h 19m
Waxing Gibbous, 98% of the Moon is Illuminated
Jan 3
Waxing Gibbous
Jan 4
Full
Jan 13
Last Quarter
Jan 20
New
Jan 26
First Quarter

Hourly Weather History & Observations

Time (AKST) Temp. Windchill Dew Point Humidity Pressure Visibility Wind Dir Wind Speed Gust Speed Precip Events Conditions
12:53 AM 18.0 °F 5.4 °F 12.0 °F 78% 30.45 in 10.0 mi East 11.5 mph - N/A   Scattered Clouds
1:53 AM 17.1 °F 3.6 °F 10.9 °F 77% 30.47 in 10.0 mi East 12.7 mph - N/A   Scattered Clouds
2:53 AM 17.1 °F 4.3 °F 10.0 °F 74% 30.47 in 10.0 mi East 11.5 mph - N/A   Mostly Cloudy
3:53 AM 15.1 °F 1.8 °F 9.0 °F 77% 30.48 in 10.0 mi East 11.5 mph - N/A   Mostly Cloudy
4:53 AM 12.9 °F -0.9 °F 7.0 °F 77% 30.48 in 10.0 mi ENE 11.5 mph - N/A   Mostly Cloudy
5:53 AM 14.0 °F 1.2 °F 7.0 °F 74% 30.47 in 10.0 mi ENE 10.4 mph - N/A   Scattered Clouds
6:53 AM 15.1 °F 2.5 °F 6.1 °F 68% 30.45 in 10.0 mi ENE 10.4 mph - N/A   Scattered Clouds
7:53 AM 14.0 °F 1.2 °F 5.0 °F 67% 30.46 in 10.0 mi ENE 10.4 mph - N/A   Scattered Clouds
8:53 AM 12.0 °F -2.7 °F 3.9 °F 70% 30.47 in 10.0 mi ENE 12.7 mph - N/A   Mostly Cloudy
9:53 AM 12.0 °F -4.5 °F 3.0 °F 67% 30.45 in 10.0 mi ENE 16.1 mph - N/A   Mostly Cloudy
10:53 AM 10.9 °F -2.6 °F 3.0 °F 70% 30.45 in 10.0 mi East 10.4 mph - N/A   Scattered Clouds
11:53 AM 12.0 °F -2.7 °F 3.0 °F 67% 30.48 in 10.0 mi ENE 12.7 mph - N/A   Scattered Clouds
12:53 PM 12.0 °F -3.4 °F 3.0 °F 67% 30.49 in 10.0 mi ENE 13.8 mph - N/A   Scattered Clouds
1:53 PM 10.9 °F -2.6 °F 1.9 °F 67% 30.49 in 10.0 mi ENE 10.4 mph - N/A   Scattered Clouds
2:53 PM 10.9 °F -0.8 °F 3.9 °F 73% 30.48 in 10.0 mi ENE 8.1 mph - N/A   Mostly Cloudy
3:53 PM 10.9 °F -2.6 °F 3.0 °F 70% 30.49 in 10.0 mi East 10.4 mph - N/A   Mostly Cloudy
4:53 PM 10.9 °F -4.7 °F 3.0 °F 70% 30.49 in 10.0 mi East 13.8 mph - N/A   Mostly Cloudy
5:53 PM 10.0 °F -4.5 °F 3.0 °F 73% 30.47 in 10.0 mi East 11.5 mph - N/A   Mostly Cloudy
6:53 PM 10.0 °F -6.5 °F 1.9 °F 70% 30.47 in 10.0 mi East 15.0 mph - N/A   Mostly Cloudy
7:53 PM 10.0 °F -5.2 °F 1.9 °F 70% 30.46 in 10.0 mi East 12.7 mph - N/A   Mostly Cloudy
8:53 PM 9.0 °F -7.3 °F 1.9 °F 73% 30.47 in 10.0 mi ENE 13.8 mph - N/A   Mostly Cloudy
9:53 PM 8.1 °F -7.7 °F 1.9 °F 76% 30.46 in 10.0 mi ENE 12.7 mph - N/A   Mostly Cloudy
10:53 PM 8.1 °F -7.7 °F 1.0 °F 73% 30.46 in 10.0 mi ENE 12.7 mph - N/A   Mostly Cloudy
11:53 PM 7.0 °F -7.5 °F 1.0 °F 77% 30.46 in 10.0 mi ENE 10.4 mph - N/A   Scattered Clouds